Home   Weather   Oklahoma City   Past weeks

Flag for USA Past Weather in Oklahoma City, Oklahoma, USA — Yesterday and Last 2 Weeks

Now
43 °F

Passing clouds.


Feels Like: 39 °F
Forecast: 46 / 76 °F
Wind: 7 mph from South

Location: Will Rogers World Airport

Current Time: Apr 24, 2017 at 4:34:13 am

Latest Report: Apr 24, 2017 at 3:52 am


Visibility: 10 mi

Pressure: 29.91 "Hg

Humidity: 82%

Dew Point: 38 °F

Location of Oklahoma CityLocation

Past Weather in Oklahoma City — Graph

°F

Oklahoma City Temperature Yesterday

Maximum temperature yesterday: 70 °F (at 4:52 pm)
Minimum temperature yesterday: 41 °F (at 6:52 am)
Average temperature yesterday: 55 °F

High & Low Weather Summary for the Past Weeks

 TemperatureHumidityPressure
High81 °F (Apr 9, 2:52 pm)100% (Apr 12, 7:21 am)30.27 "Hg (Apr 12, 7:21 am)
Low41 °F (Apr 23, 6:52 am)22% (Apr 10, 4:52 pm)29.61 "Hg (Apr 9, 4:52 pm)
Average63 °F75%30.00 "Hg
* Reported Apr 9 2:52 am — Apr 24 2:52 am, Oklahoma City, Weather by CustomWeather, © 2017

Note: Actual official high and low records may vary slightly from our data, if they occured in-between our weather recording intervals... More about our weather records

Advertising

Oklahoma City Weather History for the Previous 24 Hours

Scroll right to see more
 ConditionsComfort  
Time TempWeatherWind HumidityBarometerVisibility
2:52 am
Mon, Apr 24
45 °FPassing clouds.7 mph80%29.90 "Hg10 mi
1:52 am46 °FPassing clouds.7 mph77%29.92 "Hg10 mi
12:52 am47 °FPassing clouds.6 mph74%29.94 "Hg10 mi
11:52 pm
Sun, Apr 23
48 °FPassing clouds.6 mph71%29.96 "Hg10 mi
10:52 pm49 °FPassing clouds.5 mph71%29.98 "Hg10 mi
9:52 pm53 °FPassing clouds.9 mph59%29.98 "Hg10 mi
8:52 pm54 °FPassing clouds.8 mph57%29.99 "Hg10 mi
7:52 pm59 °FPassing clouds.7 mph51%30.00 "Hg10 mi
6:52 pm68 °FPassing clouds.5 mph30%30.02 "Hg10 mi
5:52 pm70 °FPassing clouds.No wind27%30.03 "Hg10 mi
4:52 pm70 °FScattered clouds.7 mph28%30.05 "Hg10 mi
3:52 pm69 °FPartly sunny.5 mph30%30.08 "Hg10 mi
2:52 pm67 °FScattered clouds.8 mph31%30.11 "Hg10 mi
1:52 pm67 °FPassing clouds.9 mph31%30.14 "Hg10 mi
12:52 pm64 °FPassing clouds.5 mph34%30.16 "Hg10 mi
11:52 am63 °FSunny.6 mph37%30.18 "Hg10 mi
10:52 am61 °FSunny.3 mph46%30.19 "Hg10 mi
9:52 am56 °FSunny.7 mph58%30.19 "Hg10 mi
8:52 am52 °FSunny.9 mph64%30.19 "Hg10 mi
7:52 am46 °FSunny.10 mph79%30.19 "Hg10 mi
6:52 am41 °FSunny.8 mph86%30.18 "Hg10 mi
5:52 am42 °FClear.8 mph85%30.17 "Hg10 mi
4:52 am44 °FClear.8 mph82%30.16 "Hg10 mi
Weather by CustomWeather, © 2017

See weather overviewHow to use our weather pages